[[{"header":{"parameterUnit":"m.s-1","parameterCategory":1,"la1":30.2991,"la2":30.254,"lo1":-89.0895,"lo2":-89.0444,"dy":0.0017,"dx":0.0017,"nx":28,"ny":28,"refTime":"2025-06-19T03:00:00:Z","depth":0,"parameterNumber":2,"parameterNumberName":"U-component_of_WINDS"},"data":[0,0,0,0,0,0,0,0,0,0,0,0,0,0,0,0,0,0,0,0,0,0,0,0,0,0,0,0,0,0,0,0,0,0,0,0,0,0,0,0,0,0,0,0,0,0,0,0,0,0,0,0,0,0,0,0,0,0,1.5509,1.551,0,1.5598,1.5599,1.56,1.5655,1.5656,1.5656,1.5656,1.5752,1.5754,1.5757,0,0,0,0,0,0,0,0,0,0,0,0,0,1.5391,1.5392,1.5509,1.551,1.5511,1.5598,1.5599,1.5601,1.5655,1.5656,1.5656,1.5656,1.5751,1.5754,1.5757,0,0,0,0,0,0,0,0,0,0,0,0,0,1.5457,1.5393,1.5509,1.5549,1.5553,1.5598,1.56,1.5601,1.5655,1.5656,1.5656,1.5656,1.5751,1.5754,1.5757,1.5771,0,0,1.5768,1.5769,0,0,0,0,0,0,0,0,1.5453,1.5462,1.5542,1.5546,1.5551,1.5616,1.5593,1.5658,1.5655,1.5617,1.5656,1.5657,1.5707,1.5714,1.573,1.5775,1.5779,1.5768,1.577,1.5772,1.5773,0,0,0,0,0,0,0,1.5449,1.5458,1.5545,1.5543,1.5549,1.5564,1.5574,1.5606,1.5659,1.562,1.5624,1.5634,1.571,1.5726,1.5733,1.5781,1.5768,1.5771,1.5773,1.5775,1.5842,1.5842,0,0,0,0,0,0,1.5437,1.5454,1.5542,1.5547,1.5502,1.5566,1.5577,1.5595,1.5658,1.5668,1.5633,1.5636,1.572,1.5729,1.5736,1.5756,1.5772,1.5775,1.5777,1.5843,1.5842,1.5842,0,0,0,0,0,0,1.5434,1.5444,1.5538,1.5502,1.5515,1.5567,1.5587,1.5596,1.5613,1.5668,1.5679,1.564,1.5721,1.5731,1.5762,1.576,1.5777,1.578,1.5843,1.5842,1.5842,1.5795,0,0,0,0,0,0,1.5431,1.5443,1.5447,1.5501,1.5516,1.556,1.5587,1.5598,1.5619,1.5623,1.5678,1.5687,1.5722,1.5756,1.5765,1.5765,1.5782,1.5843,1.5843,1.5842,1.5797,1.5793,1.579,0,0,0,0,0,1.5426,1.5431,1.5447,1.5457,1.5522,1.556,1.5569,1.5607,1.5618,1.5624,1.5659,1.5686,1.5759,1.5759,1.5769,1.577,1.5844,1.5843,1.5842,1.5799,1.5794,1.579,0,0,0,0,0,0,1.5377,1.5439,1.5457,1.548,1.5514,1.5569,1.5577,1.5601,1.5634,1.5637,1.5685,1.5697,1.5722,1.575,1.5748,1.5787,1.5804,1.5806,1.5768,1.5764,1.576,1.5753,1.5785,0,0,0,0,0,1.5368,1.5392,1.5446,1.5461,1.5477,1.5524,1.5541,1.5568,1.5606,1.5621,1.5659,1.5696,1.5728,1.5748,1.578,1.5802,1.5815,1.5808,1.5805,1.5802,1.5802,1.5816,1.5814,1.584,1.584,1.584,0,0,1.5352,1.5389,1.5401,1.5452,1.5481,1.5506,1.5535,1.556,1.558,1.5626,1.5656,1.5685,1.573,1.5756,1.577,1.578,1.5798,1.5801,1.5798,1.58,1.5816,1.5813,1.5811,1.5839,1.584,1.584,0,0,1.5333,1.5363,1.5379,1.5408,1.5452,1.5483,1.5487,1.5539,1.5559,1.559,1.5626,1.565,1.5704,1.5734,1.5757,1.5751,1.5777,1.5761,1.5741,1.5755,1.5753,1.5751,1.5749,1.5748,1.5761,1.5761,1.5761,0,1.5307,1.5343,1.5384,1.5407,1.5428,1.5471,1.5487,1.5514,1.5567,1.5582,1.5593,1.566,1.5694,1.5728,1.5726,1.5743,1.575,1.5754,1.575,1.5748,1.5748,1.5746,1.5745,1.5759,1.5759,1.5759,1.5759,0,1.5309,1.5334,1.5342,1.539,1.5414,1.5433,1.5478,1.5497,1.5523,1.5553,1.5585,1.5627,1.5668,1.5678,1.5704,1.5717,1.5721,1.574,1.5758,1.5742,1.5742,1.5741,1.5755,1.5756,1.5757,1.5757,0,0,1.526,1.5332,1.5334,1.5356,1.5409,1.543,1.5453,1.5492,1.5507,1.5543,1.5564,1.5608,1.5626,1.5651,1.5681,1.5693,1.5686,1.5711,1.5713,1.5704,1.5703,1.5688,1.5686,1.5704,1.5704,1.5704,1.5699,0,1.5249,1.5289,1.5327,1.5355,1.5379,1.542,1.544,1.5476,1.5505,1.5532,1.5566,1.5597,1.5618,1.5634,1.5647,1.5684,1.5686,1.5685,1.5724,1.5725,1.571,1.5686,1.567,1.5663,1.5699,1.5699,1.5699,0,1.5241,1.5273,1.5302,1.5353,1.5365,1.5382,1.5421,1.5446,1.5487,1.5509,1.5537,1.5569,1.5596,1.5612,1.5651,1.5649,1.5668,1.5689,1.569,1.5694,1.571,1.5689,1.5662,1.566,1.5699,1.5699,1.5699,0,1.5201,1.5253,1.5277,1.5296,1.5356,1.5367,1.5392,1.5434,1.5456,1.5491,1.5506,1.5544,1.5565,1.5595,1.5637,1.5644,1.5672,1.5691,1.5691,1.5689,1.5693,1.5692,1.5668,1.5707,1.5707,1.5707,1.5707,0,1.5184,1.52,1.526,1.5275,1.5295,1.534,1.5359,1.5389,1.5426,1.5449,1.5488,1.5508,1.5562,1.559,1.5623,1.5651,1.566,1.5679,1.5687,1.5675,1.5672,1.5687,1.5688,1.5707,1.5707,1.5707,1.5707,0,1.5143,1.5183,1.5213,1.5267,1.5281,1.5294,1.5341,1.5358,1.5391,1.5419,1.5428,1.548,1.5515,1.5559,1.5609,1.5631,1.5655,1.5668,1.564,1.5644,1.5641,1.564,1.5624,1.5624,1.5664,1.5663,1.5663,0,1.5128,1.5141,1.5197,1.5214,1.5239,1.5266,1.5288,1.5334,1.5355,1.5404,1.5415,1.5453,1.5485,1.5539,1.5582,1.562,1.5634,1.5626,1.564,1.5627,1.5634,1.5632,1.5633,1.5622,1.5621,1.5621,1.562,0,1.5098,1.5118,1.5147,1.5183,1.5208,1.524,1.5273,1.5285,1.5338,1.5361,1.5396,1.5421,1.5471,1.5508,1.5552,1.5581,1.5609,1.5616,1.5618,1.5604,1.5587,1.5596,1.5629,1.5616,1.5616,1.5616,1.5617,1.5617,1.5069,1.5083,1.5124,1.5156,1.5186,1.5216,1.5235,1.527,1.53,1.5343,1.5369,1.5403,1.5446,1.5508,1.5535,1.5564,1.5575,1.5578,1.5578,1.5578,1.5574,1.5583,1.5573,1.5573,1.5573,1.5573,1.5573,0,1.504,1.5069,1.5098,1.5143,1.5168,1.5193,1.5231,1.5251,1.528,1.5318,1.5348,1.539,1.5426,1.5472,1.5512,1.5526,1.5541,1.5535,1.5534,1.554,1.5562,1.5556,1.5523,1.5523,1.5523,1.5523,1.5523,1.5523,1.5028,1.5053,1.5078,1.5118,1.5148,1.5181,1.5201,1.523,1.526,1.5303,1.5333,1.5363,1.5404,1.5448,1.5483,1.5496,1.5508,1.5498,1.5515,1.5534,1.5539,1.5543,1.5537,1.5501,1.5501,1.5491,1.5491,1.5491]},{"header":{"parameterUnit":"m.s-1","parameterCategory":1,"la1":30.2991,"la2":30.254,"lo1":-89.0895,"lo2":-89.0444,"dy":0.0017,"dx":0.0017,"nx":28,"ny":28,"refTime":"2025-06-19T03:00:00:Z","depth":0,"parameterNumber":3,"parameterNumberName":"V-component_of_WINDS"},"data":[0,0,0,0,0,0,0,0,0,0,0,0,0,0,0,0,0,0,0,0,0,0,0,0,0,0,0,0,0,0,0,0,0,0,0,0,0,0,0,0,0,0,0,0,0,0,0,0,0,0,0,0,0,0,0,0,0,0,3.6707,3.6707,0,3.6719,3.6719,3.6719,3.6716,3.6716,3.6715,3.6715,3.6726,3.6726,3.6727,0,0,0,0,0,0,0,0,0,0,0,0,0,3.6679,3.6679,3.6707,3.6707,3.6707,3.6719,3.6719,3.6719,3.6716,3.6716,3.6715,3.6715,3.6726,3.6726,3.6727,0,0,0,0,0,0,0,0,0,0,0,0,0,3.6691,3.668,3.6707,3.6707,3.6707,3.6719,3.6719,3.6719,3.6716,3.6716,3.6715,3.6715,3.6725,3.6726,3.6727,3.6739,0,0,3.6729,3.673,0,0,0,0,0,0,0,0,3.669,3.6692,3.6707,3.6707,3.6707,3.6716,3.6713,3.6726,3.6716,3.6713,3.6715,3.6715,3.6723,3.6724,3.6727,3.6739,3.674,3.6729,3.673,3.673,3.673,0,0,0,0,0,0,0,3.6689,3.6691,3.6712,3.6707,3.6707,3.6706,3.6707,3.6715,3.6719,3.6713,3.6713,3.6714,3.6723,3.6726,3.6727,3.674,3.6729,3.673,3.673,3.6731,3.6761,3.6761,0,0,0,0,0,0,3.6689,3.6691,3.6711,3.6712,3.6698,3.6707,3.6708,3.6713,3.6719,3.672,3.6715,3.6714,3.6725,3.6726,3.6727,3.674,3.673,3.6731,3.6731,3.6761,3.6761,3.6761,0,0,0,0,0,0,3.6688,3.6691,3.6711,3.6701,3.6704,3.6707,3.6713,3.6714,3.6717,3.6721,3.6721,3.6717,3.6724,3.6726,3.6736,3.674,3.6731,3.6732,3.676,3.6761,3.6761,3.6767,0,0,0,0,0,0,3.6687,3.669,3.6696,3.6701,3.6704,3.672,3.6714,3.6714,3.6718,3.6718,3.6723,3.6724,3.6724,3.6734,3.6736,3.6741,3.6732,3.676,3.676,3.6761,3.6766,3.6768,3.6769,0,0,0,0,0,3.6686,3.6697,3.6696,3.6698,3.6711,3.672,3.6722,3.6723,3.6719,3.6723,3.6726,3.6724,3.674,3.6735,3.6738,3.6743,3.6759,3.676,3.6761,3.6766,3.6767,3.6769,0,0,0,0,0,0,3.6691,3.6697,3.6697,3.6709,3.6714,3.6719,3.6725,3.6724,3.673,3.6729,3.673,3.6731,3.674,3.6743,3.6738,3.6754,3.6749,3.675,3.6752,3.6753,3.6755,3.6753,3.6733,0,0,0,0,0,3.6693,3.6701,3.6706,3.6717,3.6719,3.6722,3.6726,3.6726,3.6731,3.6733,3.6736,3.674,3.6746,3.675,3.6756,3.6767,3.6767,3.6771,3.6773,3.6774,3.6774,3.6779,3.6781,3.6764,3.6764,3.6764,0,0,3.6698,3.6703,3.6708,3.6718,3.6721,3.6728,3.6724,3.6731,3.6736,3.6734,3.6743,3.6745,3.675,3.676,3.6765,3.6762,3.6779,3.6775,3.6775,3.6776,3.678,3.6782,3.6783,3.6765,3.6764,3.6764,0,0,3.6711,3.6716,3.6725,3.6728,3.6734,3.6736,3.6738,3.6743,3.6745,3.6754,3.6752,3.6758,3.6768,3.6771,3.6774,3.6787,3.6785,3.6789,3.6795,3.68,3.6801,3.6802,3.6806,3.6807,3.679,3.679,3.679,0,3.6717,3.6728,3.6729,3.6737,3.6741,3.6739,3.6747,3.6751,3.6758,3.676,3.6758,3.677,3.6774,3.6784,3.6787,3.679,3.6791,3.6788,3.6801,3.6802,3.6803,3.6806,3.6808,3.679,3.679,3.679,3.679,0,3.6733,3.6741,3.6747,3.6754,3.6759,3.6767,3.6769,3.6773,3.6773,3.6774,3.6783,3.6787,3.6792,3.6795,3.6795,3.6805,3.6803,3.6801,3.6796,3.6805,3.6808,3.6809,3.6791,3.6791,3.6791,3.679,0,0,3.6749,3.6757,3.6759,3.6761,3.6768,3.6773,3.678,3.6787,3.679,3.6795,3.68,3.6809,3.6806,3.681,3.681,3.6814,3.6822,3.6811,3.6811,3.6812,3.6832,3.6834,3.6835,3.6821,3.6822,3.6822,3.6832,0,3.6761,3.6775,3.6776,3.6788,3.6794,3.6792,3.6799,3.6802,3.6804,3.6809,3.681,3.6816,3.6813,3.6815,3.6819,3.6821,3.6826,3.682,3.6825,3.6826,3.6824,3.6837,3.6838,3.6848,3.6833,3.6833,3.6833,0,3.6778,3.6783,3.6795,3.68,3.6802,3.6808,3.6813,3.6818,3.6822,3.6823,3.6826,3.6826,3.6832,3.6827,3.6836,3.6831,3.6834,3.6835,3.6835,3.6835,3.6829,3.6836,3.6851,3.6852,3.6835,3.6835,3.6835,0,3.6786,3.6797,3.6805,3.6808,3.6813,3.6817,3.6819,3.6823,3.6826,3.6831,3.6833,3.6838,3.684,3.6844,3.6844,3.6841,3.6852,3.6848,3.6852,3.6852,3.6854,3.6854,3.6868,3.6857,3.6857,3.6857,3.6857,0,3.6799,3.6807,3.6809,3.6814,3.6822,3.6823,3.683,3.6832,3.6836,3.684,3.6839,3.6844,3.6844,3.6849,3.6849,3.6855,3.6857,3.6857,3.6856,3.6856,3.6856,3.6857,3.6856,3.6857,3.6857,3.6857,3.6857,0,3.681,3.6812,3.6821,3.6826,3.6827,3.6832,3.6836,3.684,3.6841,3.6847,3.6849,3.6851,3.6856,3.6857,3.6862,3.6863,3.687,3.6869,3.6868,3.6868,3.6872,3.6871,3.6887,3.6889,3.6877,3.6877,3.6877,0,3.6818,3.6824,3.6829,3.6832,3.6834,3.684,3.6843,3.6844,3.6847,3.6852,3.6855,3.686,3.6864,3.6872,3.6874,3.6878,3.6877,3.6882,3.6878,3.6877,3.6876,3.6875,3.6875,3.6883,3.6883,3.6883,3.6883,0,3.6831,3.6832,3.6837,3.6842,3.6846,3.685,3.6854,3.6857,3.6858,3.6862,3.6867,3.687,3.6876,3.688,3.6884,3.6886,3.6884,3.6885,3.6886,3.6885,3.6884,3.6884,3.687,3.6884,3.6884,3.6884,3.6884,3.6884,3.684,3.6845,3.6849,3.6854,3.6857,3.686,3.6864,3.6866,3.6871,3.6876,3.6876,3.6881,3.6884,3.689,3.6892,3.6895,3.6894,3.6895,3.6896,3.6896,3.6896,3.6884,3.6896,3.6896,3.6896,3.6896,3.6896,0,3.6852,3.6855,3.686,3.6865,3.6869,3.6868,3.6872,3.6875,3.688,3.6883,3.6887,3.6892,3.6897,3.6898,3.6902,3.6905,3.6904,3.6906,3.6905,3.6906,3.6898,3.6896,3.6906,3.6906,3.6906,3.6906,3.6906,3.6906,3.6859,3.6866,3.6867,3.6875,3.6878,3.6883,3.6885,3.6888,3.6891,3.6897,3.6901,3.6902,3.6904,3.6908,3.6912,3.6912,3.6913,3.6915,3.6915,3.6907,3.6906,3.6905,3.6904,3.6916,3.6916,3.6923,3.6923,3.6923]}]]